WA6MHA-11 Weather Reports


Display with metric or nautical units.
time (UTC)temp
F
wind
direction
speed
MPH
gust
MPH
rain 1hr
in
rain 24hr
in
rain mn
in
humidity
%
barometer
mb
20260503025244 62 119 5.0 12.0 0.00 0.00 0.00 43 1011.9
20260503024443 63 108 9.0 10.0 0.00 0.00 0.00 42 1011.7
20260503023639 63 135 9.0 16.0 0.00 0.00 0.00 41 1011.6
20260503023002 64 132 15.0 18.0 0.00 0.00 0.00 40 1011.5
20260503022837 64 132 15.0 18.0 0.00 0.00 0.00 40 1011.5
20260503022435 64 137 10.0 10.0 0.00 0.00 0.00 39 1011.5
20260503022034 65 130 6.0 10.0 0.00 0.00 0.00 38 1011.4
20260503021632 66 121 6.0 9.0 0.00 0.00 0.00 38 1011.3
20260503021231 66 153 2.0 9.0 0.00 0.00 0.00 38 1011.3
20260503020831 67 132 7.0 10.0 0.00 0.00 0.00 37 1011.3
20260503020429 67 135 7.0 12.0 0.00 0.00 0.00 36 1011.3
20260503020027 68 139 6.0 10.0 0.00 0.00 0.00 36 1011.2
20260503015626 68 135 8.0 14.0 0.00 0.00 0.00 36 1011.2
20260503014824 70 135 16.0 16.0 0.00 0.00 0.00 35 1011.2
20260503014422 71 115 11.0 14.0 0.00 0.00 0.00 34 1011.2
20260503014020 71 123 12.0 16.0 0.00 0.00 0.00 34 1011.2
20260503013619 72 123 9.0 13.0 0.00 0.00 0.00 34 1011.2
20260503013218 72 121 12.0 12.0 0.00 0.00 0.00 33 1011.1
20260503012817 73 137 12.0 12.0 0.00 0.00 0.00 33 1011.2
20260503012014 74 150 8.0 11.0 0.00 0.00 0.00 32 1011.3
20260503011212 75 78 10.0 10.0 0.00 0.00 0.00 32 1011.2
20260503010411 76 135 9.0 12.0 0.00 0.00 0.00 31 1011.1
20260503010009 76 137 7.0 11.0 0.00 0.00 0.00 31 1011.0
20260503005610 76 145 7.0 12.0 0.00 0.00 0.00 31 1011.1
20260503005205 76 135 2.0 10.0 0.00 0.00 0.00 31 1011.1
20260503004804 76 153 3.0 9.0 0.00 0.00 0.00 31 1011.1
20260503004002 77 135 9.0 11.0 0.00 0.00 0.00 30 1011.1
20260503003600 77 139 7.0 10.0 0.00 0.00 0.00 31 1011.2
20260503003159 77 122 6.0 12.0 0.00 0.00 0.00 30 1011.2
20260503002001 78 141 6.0 9.0 0.00 0.00 0.00 30 1011.2
20260503001554 78 144 6.0 7.0 0.00 0.00 0.00 30 1011.2
20260503001153 79 135 7.0 11.0 0.00 0.00 0.00 30 1011.2
20260503000751 79 120 3.0 13.0 0.00 0.00 0.00 30 1011.2
20260502235948 79 108 10.0 10.0 0.00 0.00 0.00 30 1011.1
20260502235548 79 135 9.0 11.0 0.00 0.00 0.00 30 1011.3
20260502235146 80 227 2.0 8.0 0.00 0.00 0.00 30 1011.3
20260502234745 79 135 6.0 9.0 0.00 0.00 0.00 30 1011.4
20260502233942 78 130 4.0 10.0 0.00 0.00 0.00 30 1011.4
20260502233549 78 135 9.0 10.0 0.00 0.00 0.00 30 1011.4
20260502232738 78 105 7.0 19.0 0.00 0.00 0.00 29 1011.5
20260502232338 80 132 4.0 16.0 0.00 0.00 0.00 30 1011.6
20260502231940 80 135 8.0 8.0 0.00 0.00 0.00 29 1011.5
20260502231535 80 153 3.0 9.0 0.00 0.00 0.00 29 1011.6
20260502231133 79 126 11.0 13.0 0.00 0.00 0.00 29 1011.6
20260502230732 79 135 8.0 12.0 0.00 0.00 0.00 29 1011.7
20260502230331 78 135 14.0 18.0 0.00 0.00 0.00 29 1011.7
20260502225929 79 121 8.0 10.0 0.00 0.00 0.00 29 1011.8
20260502225529 79 135 6.0 14.0 0.00 0.00 0.00 29 1011.8
20260502224725 80 132 11.0 11.0 0.00 0.00 0.00 28 1011.9
20260502224324 79 135 11.0 14.0 0.00 0.00 0.00 29 1012.1
20260502223522 79 110 9.0 9.0 0.00 0.00 0.00 29 1012.2
20260502223122 79 123 7.0 12.0 0.00 0.00 0.00 28 1012.4
20260502221916 80 135 8.0 9.0 0.00 0.00 0.00 28 1012.7
20260502221515 80 135 9.0 11.0 0.00 0.00 0.00 28 1012.6
20260502221114 81 135 8.0 9.0 0.00 0.00 0.00 28 1012.7
20260502220713 81 137 6.0 11.0 0.00 0.00 0.00 29 1012.8
20260502220311 83 140 6.0 9.0 0.00 0.00 0.00 29 1012.8
20260502215910 83 135 7.0 10.0 0.00 0.00 0.00 29 1012.9
20260502215510 83 152 1.0 7.0 0.00 0.00 0.00 29 1013.0
20260502215109 84 166 6.0 7.0 0.00 0.00 0.00 29 1013.0
20260502213903 83 137 7.0 9.0 0.00 0.00 0.00 29 1013.1
20260502213101 82 135 5.0 11.0 0.00 0.00 0.00 29 1013.3
20260502212700 85 175 4.0 7.0 0.00 0.00 0.00 29 1013.3
20260502211455 85 155 5.0 7.0 0.00 0.00 0.00 30 1013.4
20260502211054 84 202 2.0 6.0 0.00 0.00 0.00 30 1013.5
20260502210252 84 132 6.0 7.0 0.00 0.00 0.00 30 1013.6
20260502205851 84 126 4.0 9.0 0.00 0.00 0.00 30 1013.6
20260502205451 84 135 6.0 9.0 0.00 0.00 0.00 31 1013.7
20260502205048 82 130 7.0 9.0 0.00 0.00 0.00 31 1013.7
20260502204647 82 137 6.0 8.0 0.00 0.00 0.00 31 1013.8
20260502204245 84 85 1.0 8.0 0.00 0.00 0.00 31 1013.7
20260502203443 82 193 3.0 5.0 0.00 0.00 0.00 32 1013.7
20260502203042 81 103 4.0 7.0 0.00 0.00 0.00 32 1013.8
20260502202641 82 270 1.0 8.0 0.00 0.00 0.00 32 1013.8
20260502202241 80 166 3.0 5.0 0.00 0.00 0.00 33 1013.8
20260502201838 79 135 3.0 6.0 0.00 0.00 0.00 33 1013.9
20260502201437 79 85 3.0 6.0 0.00 0.00 0.00 33 1013.9
20260502201036 77 81 4.0 8.0 0.00 0.00 0.00 33 1014.0
20260502200634 78 135 6.0 8.0 0.00 0.00 0.00 34 1014.1
20260502200232 78 105 2.0 7.0 0.00 0.00 0.00 34 1014.1
20260502195831 78 90 3.0 6.0 0.00 0.00 0.00 34 1014.2
20260502195029 77 76 6.0 8.0 0.00 0.00 0.00 35 1014.4
20260502194628 79 80 8.0 8.0 0.00 0.00 0.00 35 1014.4
20260502193022 76 103 7.0 9.0 0.00 0.00 0.00 36 1014.6
20260502192621 76 101 8.0 8.0 0.00 0.00 0.00 36 1014.5
20260502191420 76 50 3.0 6.0 0.00 0.00 0.00 37 1014.8
20260502191016 76 28 3.0 8.0 0.00 0.00 0.00 35 1014.7
20260502190615 77 76 4.0 7.0 0.00 0.00 0.00 35 1014.9
20260502190213 78 130 7.0 7.0 0.00 0.00 0.00 36 1015.0
20260502185812 79 132 0.0 5.0 0.00 0.00 0.00 36 1015.1
20260502185411 79 221 1.0 3.0 0.00 0.00 0.00 37 1015.2
20260502185009 78 255 2.0 4.0 0.00 0.00 0.00 37 1015.1
20260502184608 77 283 1.0 5.0 0.00 0.00 0.00 37 1015.3
20260502184207 76 119 4.0 6.0 0.00 0.00 0.00 38 1015.4
20260502183806 77 81 0.0 1.0 0.00 0.00 0.00 39 1015.5
20260502183405 76 72 1.0 3.0 0.00 0.00 0.00 39 1015.4
20260502183005 75 326 1.0 2.0 0.00 0.00 0.00 40 1015.4
20260502182601 74 170 1.0 3.0 0.00 0.00 0.00 41 1015.4
20260502182201 73 126 3.0 5.0 0.00 0.00 0.00 41 1015.4
20260502181759 72 126 5.0 6.0 0.00 0.00 0.00 42 1015.4
20260502170135 63 128 4.0 5.0 0.00 0.00 0.00 48 1016.4
20260502164128 62 135 1.0 7.0 0.00 0.00 0.00 49 1016.3
20260502163326 62 135 9.0 9.0 0.00 0.00 0.00 50 1016.3
20260502162927 63 135 6.0 6.0 0.00 0.00 0.00 51 1016.3
20260502162523 64 117 4.0 4.0 0.00 0.00 0.00 52 1016.2
20260502162122 64 210 1.0 4.0 0.00 0.00 0.00 52 1016.3
20260502161319 62 127 2.0 4.0 0.00 0.00 0.00 54 1016.2
20260502160918 61 154 2.0 4.0 0.00 0.00 0.00 54 1016.1
20260502160517 61 162 2.0 4.0 0.00 0.00 0.00 54 1016.2
20260502160117 60 125 3.0 4.0 0.00 0.00 0.00 54 1016.2
20260502151702 57 85 4.0 6.0 0.00 0.00 0.00 57 1015.8
20260502151302 57 103 3.0 6.0 0.00 0.00 0.00 58 1015.6
20260502150859 57 126 5.0 5.0 0.00 0.00 0.00 59 1015.7
20260502150500 57 137 3.0 5.0 0.00 0.00 0.00 58 1015.7
20260502130419 53 135 0.0 0.0 0.00 0.00 0.00 60 1015.1
20260502123209 51 85 0.0 1.0 0.00 0.00 0.00 60 1014.9
20260502122808 51 135 0.0 2.0 0.00 0.00 0.00 60 1014.8
20260502122407 51 135 1.0 2.0 0.00 0.00 0.00 60 1014.8
20260502121604 50 182 0.0 1.0 0.00 0.00 0.00 60 1014.7
20260502121202 50 135 1.0 1.0 0.00 0.00 0.00 60 1014.7
20260502120801 49 164 1.0 1.0 0.00 0.00 0.00 59 1014.8
20260502120401 49 135 1.0 2.0 0.00 0.00 0.00 59 1014.8
20260502115558 49 83 0.0 0.0 0.00 0.00 0.00 59 1014.8
20260502115156 49 78 0.0 0.0 0.00 0.00 0.00 59 1014.6
20260502114755 50 81 0.0 0.0 0.00 0.00 0.00 59 1014.6
20260502114354 50 81 0.0 0.0 0.00 0.00 0.00 59 1014.6
20260502113953 50 81 0.0 0.0 0.00 0.00 0.00 59 1014.5
20260502113552 49 81 0.0 0.0 0.00 0.00 0.00 59 1014.5
20260502112748 49 42 0.0 1.0 0.00 0.00 0.00 59 1014.4
20260502112347 49 81 0.0 0.0 0.00 0.00 0.00 59 1014.4
20260502111545 49 78 0.0 0.0 0.00 0.00 0.00 59 1014.5
20260502111143 50 42 0.0 0.0 0.00 0.00 0.00 59 1014.4
20260502110742 50 42 0.0 0.0 0.00 0.00 0.00 59 1014.3
20260502110340 50 81 0.0 0.0 0.00 0.00 0.00 59 1014.3
20260502105939 50 85 0.0 0.0 0.00 0.00 0.00 59 1014.3
20260502105538 50 81 0.0 0.0 0.00 0.00 0.00 59 1014.3
20260502104336 50 342 0.0 0.0 0.00 0.00 0.00 59 1014.2
20260502103933 50 315 0.0 0.0 0.00 0.00 0.00 59 1014.2
20260502103534 51 301 0.0 0.0 0.00 0.00 0.00 59 1014.2
20260502103131 51 306 0.0 0.0 0.00 0.00 0.00 59 1014.2
20260502100325 51 328 0.0 0.0 0.00 0.00 0.00 58 1014.3
20260502091508 53 301 0.0 0.0 0.00 0.00 0.00 1014.5
20260502091506 53 301 0.0 0.0 0.00 0.00 0.00 58 1014.5
20260502091104 53 310 0.0 0.0 0.00 0.00 0.00 58 1014.6
20260502090703 53 301 0.0 0.0 0.00 0.00 0.00 58 1014.6
20260502090302 53 310 0.0 0.0 0.00 0.00 0.00 57 1014.7
20260502071428 56 42 0.0 0.0 0.00 0.00 0.00 55 1015.5
20260502071026 56 45 0.0 0.0 0.00 0.00 0.00 55 1015.4
20260502070625 56 45 0.0 0.0 0.00 0.00 0.00 55 1015.3
20260502070224 56 40 0.0 0.0 0.00 0.00 0.00 55 1015.4
20260502065822 56 42 0.0 0.0 0.00 0.00 0.00 55 1015.4
20260502065421 56 40 0.0 0.0 0.00 0.00 0.00 55 1015.4
20260502065023 57 38 0.0 0.0 0.00 0.00 0.00 55 1015.4
20260502064619 57 45 0.0 0.0 0.00 0.00 0.00 55 1015.0
20260502064217 57 45 0.0 0.0 0.00 0.00 0.00 54 1015.3
20260502063816 57 45 0.0 0.0 0.00 0.00 0.00 54 1015.3
20260502063014 57 45 0.0 0.0 0.00 0.00 0.00 54 1015.2
20260502062615 57 38 0.0 0.0 0.00 0.00 0.00 54 1015.2
20260502062211 57 40 0.0 0.0 0.00 0.00 0.00 54 1015.2
20260502061810 58 83 0.0 0.0 0.00 0.00 0.00 54 1015.1
20260502061408 58 76 0.0 0.0 0.00 0.00 0.00 53 1015.2
20260502061007 58 76 0.0 0.0 0.00 0.00 0.00 53 1015.2
20260502060607 58 83 0.0 1.0 0.00 0.00 0.00 53 1015.2
20260502055803 58 135 2.0 2.0 0.00 0.00 0.00 53 1015.1
20260502055401 58 135 2.0 2.0 0.00 0.00 0.00 53 1015.1
20260502055003 58 135 1.0 3.0 0.00 0.00 0.00 53 1015.1
20260502054559 58 135 2.0 2.0 0.00 0.00 0.00 53 1015.2
20260502054158 58 83 2.0 2.0 0.00 0.00 0.00 53 1015.2
20260502053757 58 90 2.0 2.0 0.00 0.00 0.00 52 1015.2
20260502053355 58 81 2.0 2.0 0.00 0.00 0.00 52 1015.2
20260502052954 58 90 2.0 2.0 0.00 0.00 0.00 52 1015.3
20260502052553 58 135 2.0 2.0 0.00 0.00 0.00 52 1015.3
20260502052152 59 135 2.0 2.0 0.00 0.00 0.00 52 1015.3
20260502051750 59 135 2.0 3.0 0.00 0.00 0.00 52 1015.2
20260502051349 59 135 2.0 2.0 0.00 0.00 0.00 51 1015.2
20260502050947 59 130 2.0 2.0 0.00 0.00 0.00 51 1015.1
20260502050546 59 135 2.0 3.0 0.00 0.00 0.00 51 1015.1
20260502045744 59 135 2.0 3.0 0.00 0.00 0.00 51 1015.0
20260502045343 59 135 2.0 3.0 0.00 0.00 0.00 51 1015.0
20260502044942 60 135 2.0 3.0 0.00 0.00 0.00 50 1015.0
20260502044539 60 135 2.0 2.0 0.00 0.00 0.00 50 1015.0
20260502044138 60 135 2.0 4.0 0.00 0.00 0.00 50 1014.9
20260502043739 60 103 3.0 4.0 0.00 0.00 0.00 50 1014.9
20260502043337 60 135 3.0 5.0 0.00 0.00 0.00 49 1014.8
20260502042534 61 110 4.0 4.0 0.00 0.00 0.00 49 1014.7
20260502041731 61 135 2.0 2.0 0.00 0.00 0.00 48 1014.5
20260502041330 61 135 2.0 4.0 0.00 0.00 0.00 48 1014.5
20260502035724 63 123 2.0 4.0 0.00 0.00 0.00 47 1014.3
20260502035323 63 135 2.0 5.0 0.00 0.00 0.00 47 1014.2
20260502034927 63 135 4.0 4.0 0.00 0.00 0.00 46 1014.0
20260502034521 63 135 4.0 4.0 0.00 0.00 0.00 46 1014.1
20260502034126 64 135 3.0 3.0 0.00 0.00 0.00 45 1014.0
20260502033719 65 135 3.0 3.0 0.00 0.00 0.00 45 1013.9
20260502033318 65 135 2.0 2.0 0.00 0.00 0.00 45 1013.9
20260502032915 65 135 1.0 2.0 0.00 0.00 0.00 44 1013.7
20260502032514 65 108 1.0 6.0 0.00 0.00 0.00 44 1013.6
20260502032113 66 96 3.0 3.0 0.00 0.00 0.00 43 1013.6
20260502031712 66 177 0.0 1.0 0.00 0.00 0.00 43 1013.5
20260502031313 66 135 2.0 4.0 0.00 0.00 0.00 42 1013.4
20260502030508 67 135 3.0 3.0 0.00 0.00 0.00 41 1013.4
20260502030106 67 135 2.0 4.0 0.00 0.00 0.00 41 1013.4